Flag for Russia Weather past 2 weeks in Bryansk, Russia

Now
77 °F

Sunny.


Feels Like: 77 °F
Forecast: 51 / 74 °F
Wind: 8 mph from South

Location: Brjansk

Current Time: Apr 28, 2015 at 5:34:07 PM

Latest Report: Apr 28, 2015 at 5:00 PM


Visibility: 10 mi

Pressure: 29.92 "Hg

Humidity: 21%

Dew point: 34 °F

Location of BryanskLocation

Historic Weather in Bryansk — Graph

°F

Bryansk temperature yesterday

Maximum temperature yesterday: 72 °F (at 1:00 PM)
Minimum temperature yesterday: 50 °F (at 6:00 AM)
Average temperature yesterday: 62 °F

Past Weeks' High & Low Weather Summary

 TemperatureHumidityPressure
High79 °F (Apr 28, 2:00 PM)100% (Apr 15, 3:00 PM)29.98 "Hg (Apr 15, 3:00 PM)
Low23 °F (Apr 20, 4:00 AM)21% (Apr 25, 1:00 PM)29.33 "Hg (Apr 16, 1:00 PM)
Average47 °F57%29.72 "Hg
* Reported Apr 13 4:00 PM — Apr 28 4:00 PM, Bryansk, Weather by CustomWeather, © 2015

Note: Actual official high and low records may vary slightly from our data, if they occured in-between our weather recording intervals... More about our weather records

Advertising

Bryansk weather history for previous 24 hours

 ConditionsComfort  
Time TempWeatherWind HumidityBarometerVisibility
4:00 PM
Tue, Apr 28
77 °FPassing clouds.15 mph24%29.92 "HgN/A
3:00 PM77 °FPassing clouds.17 mph24%29.92 "HgN/A
2:00 PM79 °FPassing clouds.8 mph26%29.92 "HgN/A
1:00 PM77 °FPassing clouds.8 mph30%29.92 "HgN/A
12:00 PM75 °FSunny.13 mph34%29.95 "Hg10 mi
11:00 AM70 °FSunny.6 mph50%29.95 "Hg10 mi
10:00 AM63 °FSunny.3 mph64%29.95 "Hg10 mi
9:00 AM55 °FSunny.6 mph77%29.95 "Hg10 mi
8:00 AM54 °FSunny.3 mph82%29.92 "Hg10 mi
7:00 AM52 °FSunny.3 mph88%29.92 "Hg10 mi
6:00 AM48 °FClear.3 mph94%29.89 "Hg10 mi
5:00 AM48 °FClear.6 mph94%29.89 "Hg10 mi
4:00 AM50 °FClear.3 mph94%29.89 "Hg10 mi
3:00 AM52 °FClear.6 mph88%29.89 "Hg10 mi
2:00 AM52 °FClear.6 mph88%29.89 "Hg10 mi
1:00 AM52 °FClear.3 mph94%29.89 "Hg10 mi
12:00 AM54 °FClear.1 mph94%29.89 "Hg10 mi
11:00 PM
Mon, Apr 27
55 °FClear.6 mph82%29.89 "Hg10 mi
10:00 PM57 °FClear.8 mph77%29.89 "Hg10 mi
9:00 PM55 °FSprinkles. Partly sunny.15 mph88%29.89 "HgN/A
8:00 PM66 °FSunny.13 mph46%29.86 "Hg10 mi
7:00 PM70 °FPassing clouds.3 mph38%29.83 "HgN/A
6:00 PM72 °FPassing clouds.10 mph36%29.83 "HgN/A
5:00 PM72 °FPassing clouds.10 mph36%29.83 "HgN/A
Weather by CustomWeather, © 2015

See weather overviewHow to use our weather pages